Beaver Lake Weather Center

Moon Phase Calendar



Beaver Lake Water Level
Online Cameras

 


      

Current Conditions in Prairie Creek
9/26/2021 12:38:03 AM

56°F
Feels Like 55
Clear
Humidity
82%
Pressure
30.12"
Wind
3.4 mph (ESE)
Dew Point
50°F
UV Index
0/10 (Low)
Visibility
6 mi

Hourly Forecast

Date & Time Sun, Sep 26
12:00 AM
Sun, Sep 26
1:00 AM
Sun, Sep 26
2:00 AM
Sun, Sep 26
3:00 AM
Sun, Sep 26
4:00 AM
Sun, Sep 26
5:00 AM
Sun, Sep 26
6:00 AM
Sun, Sep 26
7:00 AM
Sun, Sep 26
8:00 AM
Sun, Sep 26
9:00 AM
Sun, Sep 26
10:00 AM
Sun, Sep 26
11:00 AM
Sun, Sep 26
12:00 PM
Sun, Sep 26
1:00 PM
Sun, Sep 26
2:00 PM
Sun, Sep 26
3:00 PM
Sun, Sep 26
4:00 PM
Sun, Sep 26
5:00 PM
Sun, Sep 26
6:00 PM
Sun, Sep 26
7:00 PM
Sun, Sep 26
8:00 PM
Sun, Sep 26
9:00 PM
Sun, Sep 26
10:00 PM
Sun, Sep 26
11:00 PM
Mon, Sep 27
12:00 AM
Mon, Sep 27
1:00 AM
Mon, Sep 27
2:00 AM
Mon, Sep 27
3:00 AM
Mon, Sep 27
4:00 AM
Mon, Sep 27
5:00 AM
Mon, Sep 27
6:00 AM
Mon, Sep 27
7:00 AM
Mon, Sep 27
8:00 AM
Mon, Sep 27
9:00 AM
Mon, Sep 27
10:00 AM
Mon, Sep 27
11:00 AM
Mon, Sep 27
12:00 PM
Mon, Sep 27
1:00 PM
Mon, Sep 27
2:00 PM
Mon, Sep 27
3:00 PM
Mon, Sep 27
4:00 PM
Mon, Sep 27
5:00 PM
Mon, Sep 27
6:00 PM
Mon, Sep 27
7:00 PM
Mon, Sep 27
8:00 PM
Mon, Sep 27
9:00 PM
Mon, Sep 27
10:00 PM
Mon, Sep 27
11:00 PM
Condition
Clear

Clear

Clear

Clear

Clear

Clear

Clear

Clear

Clear

Clear

Clear

Clear

Clear

Clear

Clear

Clear

Clear

Clear

Clear

Clear

Clear

Clear

Clouds

Clouds

Clouds

Clouds

Clouds

Clouds

Clouds

Clouds

Clouds

Clouds

Clouds

Clouds

Clouds

Clouds

Clouds

Clouds

Clouds

Clouds

Clouds

Clouds

Clouds

Clouds

Clouds

Clouds

Clouds

Clouds
Temperature 56°F56°F56°F56°F57°F57°F58°F58°F60°F69°F77°F82°F85°F87°F88°F88°F89°F88°F85°F79°F73°F71°F71°F71°F70°F69°F69°F67°F66°F64°F64°F63°F65°F73°F78°F83°F86°F87°F88°F89°F89°F88°F85°F76°F72°F70°F69°F67°F
Feels Like 55°F55°F55°F55°F55°F55°F55°F56°F58°F67°F76°F81°F83°F84°F85°F85°F86°F86°F83°F78°F72°F70°F70°F70°F69°F68°F68°F66°F65°F63°F63°F62°F64°F72°F78°F81°F83°F85°F86°F86°F86°F85°F83°F75°F71°F69°F68°F67°F
Cloudiness 3%1%4%5%6%7%7%6%0%0%0%0%0%0%0%0%0%0%0%0%0%0%14%25%32%37%93%97%98%93%86%79%17%34%52%64%67%66%57%57%52%47%40%39%94%97%98%96%
Visibility 6 mi6 mi6 mi6 mi6 mi6 mi6 mi6 mi6 mi6 mi6 mi6 mi6 mi6 mi6 mi6 mi6 mi6 mi6 mi6 mi6 mi6 mi6 mi6 mi6 mi6 mi6 mi6 mi6 mi6 mi6 mi6 mi6 mi6 mi6 mi6 mi6 mi6 mi6 mi6 mi6 mi6 mi6 mi6 mi6 mi6 mi6 mi6 mi
Precipitation 0%0%0%0%0%0%0%0%0%0%0%0%0%0%0%0%0%0%0%0%0%0%0%0%0%0%0%0%0%0%0%0%0%0%0%0%0%0%0%0%0%0%0%0%0%0%0%0%
Humidity 73%82%73%65%56%48%41%45%49%43%36%32%29%27%26%26%26%28%31%38%45%49%50%50%52%52%53%57%60%63%64%64%63%49%39%32%30%28%27%26%26%27%32%43%48%52%55%57%
Dew Point 48°F50°F48°F45°F41°F38°F34°F36°F41°F45°F48°F49°F49°F49°F49°F49°F50°F51°F51°F51°F50°F51°F51°F50°F50°F51°F51°F51°F51°F51°F51°F51°F52°F52°F51°F50°F50°F50°F50°F50°F49°F50°F51°F51°F51°F51°F51°F51°F
Pressure 30.12"30.12"30.12"30.09"30.09"30.06"30.06"30.06"30.06"30.06"30.06"30.03"30.03"30"29.97"29.94"29.91"29.91"29.91"29.91"29.94"29.97"29.97"29.97"29.97"29.97"29.97"29.97"29.97"29.97"29.97"29.97"30"30"30"30"29.97"29.94"29.91"29.88"29.88"29.88"29.88"29.88"29.91"29.94"29.94"29.94"
Wind Speed 3.7 mph4.2 mph5.1 mph4.8 mph4.7 mph4.9 mph5.1 mph5.4 mph5.1 mph6.4 mph10 mph12.6 mph13.2 mph13.6 mph13.3 mph13.1 mph12.7 mph11.6 mph11 mph7.6 mph6.2 mph6.9 mph7.6 mph7.4 mph7.5 mph7.7 mph7.5 mph6.8 mph6.5 mph6.3 mph6.5 mph6.2 mph6 mph9.7 mph11.4 mph12.3 mph12.2 mph12 mph11.9 mph10.9 mph10.2 mph9.5 mph8 mph5.2 mph5.1 mph5.2 mph5.3 mph5.3 mph
Wind
Direction
135°
SE
127°
SE
128°
SE
137°
SE
155°
SSE
151°
SSE
159°
SSE
160°
SSE
158°
SSE
177°
S
204°
SSW
217°
SW
220°
SW
219°
SW
216°
SW
214°
SW
212°
SSW
211°
SSW
211°
SSW
205°
SSW
185°
S
177°
S
183°
S
186°
S
185°
S
187°
S
192°
SSW
191°
S
195°
SSW
198°
SSW
196°
SSW
196°
SSW
202°
SSW
214°
SW
222°
SW
224°
SW
223°
SW
218°
SW
211°
SSW
206°
SSW
204°
SSW
202°
SSW
197°
SSW
181°
S
168°
SSE
166°
SSE
173°
S
171°
S

Daily Forecast

Date High Low Precip. Humidity
Today
Sep 26

Clear
89 °F
56 °F
0%
27%
Monday
Sep 27

Clouds
89 °F
63 °F
0%
28%
Tuesday
Sep 28

Clouds
89 °F
63 °F
17%
33%
Wednesday
Sep 29

Rain
87 °F
65 °F
90%
46%
Thursday
Sep 30

Rain
78 °F
65 °F
100%
77%
Friday
Oct 1

Rain
83 °F
65 °F
99%
56%
Saturday
Oct 2

Rain
81 °F
65 °F
93%
69%
Sunday
Oct 3

Rain
84 °F
67 °F
99%
48%
Monday
Oct 4

Rain
84 °F
66 °F
99%
43%
Tuesday
Oct 5

Clear
81 °F
58 °F
0%
45%
Wednesday
Oct 6

Clouds
84 °F
58 °F
0%
35%
Thursday
Oct 7

Rain
77 °F
62 °F
84%
67%
Friday
Oct 8

Rain
85 °F
60 °F
94%
51%
Saturday
Oct 9

Clear
68 °F
47 °F
70%
35%
Sunday
Oct 10

Clear
75 °F
48 °F
0%
34%
Monday
Oct 11

Rain
71 °F
56 °F
23%
37%

Temperature 8-14 Day Outlook



Precipitation 8-14 Day Outlook




Quick Links
Beaver Lake News
Beaver Lake Photos
Beaver Lake Videos




About Us
Contact Us
Site Map
Search Site
Advertise With Us
   
Beaver.USLakes.info
THE BEAVER LAKE WEBSITE

Copyright 2021, Lakes Online
Privacy    |    Legal